Location: Champs
(48.8539°N, 2.6040°E)
Time: 10:48:08
(UTC+00:00)

USA 308 - Pass Details

Date: 03 June 2022
Orbit: 549 x 558 km, 54.0° (Epoch: 14 June)

Event Time Altitude Azimuth Distance (km) Brightness Sun altitude
Rises 20:42:33 0° 197° (SSW) 2,711 6.1 -7.7°
Reaches altitude 10° 20:45:11 10° 181° (S) 1,824 5.0 -8.0°
Maximum altitude 20:48:17 21° 133° (SE) 1,287 4.1 -8.3°
Drops below altitude 10° 20:51:24 10° 84° (E) 1,838 5.2 -8.6°
Sets 20:54:04 0° 68° (ENE) 2,739 6.2 -8.9°
